Regional Weather Roundup
Issued by NWS Cleveland, OH

Home | Current Version | Previous Version | Graphics & Text | Print | Product List | Glossary On
Versions: 1 2 3 4 5 6 7 8 9 10 11 12 13 14 15 16 17 18 19 20 21 22 23 24 25 26 27 28 29 30 31 32 33 34 35 36 37 38 39 40 41 42 43 44 45 46 47 48 49 50
000
ASUS41 KCLE 230000
RWRCLE
OHIO REGIONAL WEATHER ROUNDUP
NATIONAL WEATHER SERVICE WILMINGTON, OH
800 PM EDT FRI AUG 22 2014

NOTE: "FAIR" INDICATES FEW OR NO CLOUDS BELOW 12,000 FEET WITH NO
SIGNIFICANT WEATHER AND/OR OBSTRUCTIONS TO VISIBILITY.

OHZ001>008-015>018-024>027-034-035-043-044-230100-
   NORTHWEST OHIO

CITY           SKY/WX    TMP DP  RH WIND       PRES   REMARKS
DEFIANCE       PTCLDY    81  72  74 CALM      29.96S
FINDLAY        PTCLDY    79  75  87 CALM      29.95S
TOLEDO EXPRESS PTCLDY    79  71  76 E5        29.95S
TOLEDO METCALF PTCLDY    79  70  74 NE3       29.96S
LIMA           PTCLDY    80  73  79 N5        29.97R
$$

OHZ009>014-019>023-028>033-038-089-230100-
   NORTHEAST OHIO

CITY           SKY/WX    TMP DP  RH WIND       PRES   REMARKS
CLE-HOPKINS    PTCLDY    74  69  85 NE8       29.98S
CLE-LAKEFRONT  PTCLDY    74  71  91 N6        29.96S
CUY CO. ARPT   MOCLDY    75  72  88 NE7       29.98R
LORAIN-ELYRIA  CLEAR     78  69  73 NE5       29.97S
ASHTABULA      CLEAR     73  67  81 CALM      29.99R
AKRON-CANTON   MOCLDY    76  71  85 E5        29.97R
WOOSTER        NOT AVBL
MANSFIELD      PTCLDY    76  73  91 NW6       29.99R
YOUNGSTOWN     PTCLDY    76  69  79 N8        29.97R
$$

OHZ042-051>053-060>062-070>072-077>081-230100-
  SOUTHWEST OHIO

CITY           SKY/WX    TMP DP  RH WIND       PRES   REMARKS
CINC-COVINGTON PTCLDY    83  72  69 NW7       29.98R
CINC-LUNKEN    PTCLDY    83  72  69 NW5       29.96R
HAMILTON       PTCLDY    81  73  76 W3        29.96S
DAYTON         NOT AVBL
WRIGHT-PAT AFB NOT AVBL
DAYTON GENERAL PTCLDY    82  72  71 NW7       29.96R
WILMINGTON     MOCLDY    79  73  82 NW5       29.97R
$$

OHZ036-037-039>041-045>050-054>059-063>069-073>076-082>088-230100-
  CENTRAL AND SOUTHEAST OHIO

CITY           SKY/WX    TMP DP  RH WIND       PRES   REMARKS
COLUMBUS       MOCLDY    82  71  69 CALM      29.95R
OSU AIRPORT    LGT RAIN  79  73  82 CALM      29.95S
BOLTON FIELD   NOT AVBL
RICKENBACK AFB NOT AVBL
NEWARK         CLOUDY    78  72  81 CALM      29.95S
MARION         MOCLDY    78  74  87 NE6       29.97R
LANCASTER      LGT RAIN  78  73  84 SW3       29.96R
ZANESVILLE     CLOUDY    78  71  79 SW3       29.96R
NEW PHILLY     TSTM      73  72  96 SW7       29.98R VSB 3/4
$$


USA.gov is the U.S. government's official web portal to all federal, state and local government web resources and services.